When you browse on this site, cookies collect data to enhance your experience and personalize the content and advertising you see.
Visit our Privacy Policy to learn more. By continuing to use the site, you agree to this use of cookies and data.
  • In Romania
  • List of Countries
  • For 7 days
  • Water Temperature
  • Weather Map
  • Weather Widgets
  • user-avatar
    Login

    Hourly Weather Chiangmaj

    Today, 6 April, Monday

    Time Temperature Precipitation Wind Pressure Humidity
    00:00 +25°C° 0 mm 1 mps 689 mmHg 38%
    01:00 +23°C° 0 mm 1 mps 689 mmHg 40%
    02:00 +23°C° 0 mm 1 mps 689 mmHg 41%
    03:00 +23°C° 0 mm 1 mps 688 mmHg 42%
    04:00 +22°C° 0 mm 1 mps 688 mmHg 43%
    05:00 +22°C° 0 mm 1 mps 688 mmHg 43%
    06:00 +22°C° 0 mm 1 mps 688 mmHg 43%
    07:00 +23°C° 0 mm 1 mps 689 mmHg 47%
    08:00 +27°C° 0 mm 1 mps 690 mmHg 37%
    09:00 +31°C° 0 mm 1 mps 691 mmHg 28%
    10:00 +36°C° 0 mm 2 mps 692 mmHg 19%
    11:00 +37°C° 0 mm 2 mps 691 mmHg 17%
    12:00 +39°C° 0 mm 3 mps 690 mmHg 15%
    13:00 +40°C° 0 mm 3 mps 690 mmHg 13%
    14:00 +40°C° 0 mm 3 mps 689 mmHg 14%
    15:00 +40°C° 0 mm 4 mps 688 mmHg 15%
    16:00 +40°C° 0 mm 4 mps 687 mmHg 17%
    17:00 +37°C° 0 mm 3 mps 687 mmHg 22%
    18:00 +34°C° 0 mm 3 mps 687 mmHg 27%
    19:00 +31°C° 0 mm 2 mps 686 mmHg 32%
    20:00 +29°C° 0 mm 2 mps 687 mmHg 35%
    21:00 +28°C° 0 mm 2 mps 687 mmHg 39%
    22:00 +26°C° 0 mm 2 mps 688 mmHg 42%
    23:00 +26°C° 0 mm 2 mps 688 mmHg 43%

    Tomorrow, 7 April, Tuesday

    Time Temperature Precipitation Wind Pressure Humidity
    00:00 +25°C° 0 mm 2 mps 688 mmHg 45%
    01:00 +24°C° 0 mm 2 mps 688 mmHg 46%
    02:00 +24°C° 0 mm 2 mps 687 mmHg 49%
    03:00 +23°C° 0 mm 1 mps 687 mmHg 52%
    04:00 +22°C° 0 mm 1 mps 687 mmHg 54%
    05:00 +22°C° 0 mm 1 mps 687 mmHg 56%
    06:00 +22°C° 0 mm 1 mps 688 mmHg 58%
    07:00 +22°C° 0 mm 1 mps 688 mmHg 59%
    08:00 +26°C° 0 mm 1 mps 689 mmHg 48%
    09:00 +30°C° 0 mm 1 mps 690 mmHg 36%
    10:00 +34°C° 0 mm 1 mps 691 mmHg 25%
    11:00 +37°C° 0 mm 2 mps 690 mmHg 22%
    12:00 +38°C° 0 mm 2 mps 690 mmHg 19%
    13:00 +39°C° 0 mm 3 mps 689 mmHg 15%
    14:00 +39°C° 0 mm 3 mps 689 mmHg 15%
    15:00 +40°C° 0 mm 4 mps 688 mmHg 15%
    16:00 +40°C° 0 mm 4 mps 687 mmHg 15%
    17:00 +36°C° 0 mm 3 mps 687 mmHg 19%
    18:00 +34°C° 0 mm 3 mps 686 mmHg 22%
    19:00 +30°C° 0 mm 2 mps 686 mmHg 26%
    20:00 +29°C° 0 mm 2 mps 687 mmHg 29%
    21:00 +27°C° 0 mm 2 mps 687 mmHg 31%
    22:00 +26°C° 0 mm 2 mps 688 mmHg 34%
    23:00 +25°C° 0 mm 2 mps 688 mmHg 36%

    Day after tomorrow, 8 April, Wednesday

    Time Temperature Precipitation Wind Pressure Humidity
    00:00 +24°C° 0 mm 1 mps 687 mmHg 38%
    01:00 +23°C° 0 mm 1 mps 687 mmHg 41%
    02:00 +22°C° 0 mm 1 mps 687 mmHg 44%
    03:00 +22°C° 0 mm 1 mps 687 mmHg 48%
    04:00 +21°C° 0 mm 1 mps 687 mmHg 52%
    05:00 +21°C° 0 mm 1 mps 687 mmHg 54%
    06:00 +21°C° 0 mm 1 mps 688 mmHg 56%
    07:00 +22°C° 0 mm 1 mps 688 mmHg 58%
    08:00 +26°C° 0 mm 1 mps 690 mmHg 47%
    09:00 +30°C° 0 mm 1 mps 691 mmHg 37%
    10:00 +35°C° 0 mm 1 mps 692 mmHg 26%
    11:00 +36°C° 0 mm 1 mps 691 mmHg 23%
    12:00 +38°C° 0 mm 2 mps 691 mmHg 20%
    13:00 +39°C° 0 mm 2 mps 690 mmHg 17%
    14:00 +38°C° 0 mm 2 mps 689 mmHg 18%
    15:00 +37°C° 0 mm 1 mps 688 mmHg 18%
    16:00 +36°C° 0 mm 1 mps 687 mmHg 19%
    17:00 +34°C° 0 mm 1 mps 687 mmHg 21%
    18:00 +32°C° 0 mm 1 mps 687 mmHg 24%
    19:00 +30°C° 0 mm 1 mps 687 mmHg 26%
    20:00 +29°C° 0 mm 1 mps 687 mmHg 30%
    21:00 +27°C° 0 mm 1 mps 688 mmHg 33%
    22:00 +26°C° 0 mm 2 mps 688 mmHg 36%
    23:00 +25°C° 0 mm 1 mps 688 mmHg 37%

    9 April, Thursday

    Time Temperature Precipitation Wind Pressure Humidity
    00:00 +25°C° 0 mm 1 mps 688 mmHg 38%
    01:00 +24°C° 0 mm 1 mps 688 mmHg 38%
    02:00 +23°C° 0 mm 1 mps 688 mmHg 38%
    03:00 +23°C° 0 mm 1 mps 688 mmHg 37%
    04:00 +23°C° 0 mm 1 mps 688 mmHg 36%
    05:00 +23°C° 0 mm 1 mps 688 mmHg 36%
    06:00 +23°C° 0 mm 1 mps 689 mmHg 36%
    07:00 +23°C° 0 mm 1 mps 689 mmHg 37%
    08:00 +27°C° 0 mm 1 mps 690 mmHg 30%
    09:00 +31°C° 0 mm 1 mps 691 mmHg 23%
    10:00 +35°C° 0 mm 1 mps 692 mmHg 16%
    11:00 +38°C° 0 mm 2 mps 692 mmHg 15%
    12:00 +39°C° 0 mm 2 mps 691 mmHg 14%
    13:00 +40°C° 0 mm 2 mps 691 mmHg 13%
    14:00 +39°C° 0 mm 2 mps 690 mmHg 14%
    15:00 +39°C° 0 mm 2 mps 689 mmHg 14%
    16:00 +38°C° 0 mm 2 mps 688 mmHg 15%
    17:00 +36°C° 0 mm 2 mps 688 mmHg 17%
    18:00 +34°C° 0 mm 2 mps 688 mmHg 20%
    19:00 +31°C° 0 mm 2 mps 687 mmHg 22%
    20:00 +29°C° 0 mm 2 mps 688 mmHg 24%
    21:00 +27°C° 0 mm 2 mps 688 mmHg 27%
    22:00 +26°C° 0 mm 2 mps 689 mmHg 29%
    23:00 +25°C° 0 mm 2 mps 689 mmHg 30%

    10 April, Friday

    Time Temperature Precipitation Wind Pressure Humidity
    00:00 +24°C° 0 mm 1 mps 689 mmHg 30%
    01:00 +23°C° 0 mm 1 mps 689 mmHg 31%
    02:00 +23°C° 0 mm 1 mps 688 mmHg 33%
    03:00 +23°C° 0 mm 1 mps 688 mmHg 36%
    04:00 +23°C° 0 mm 1 mps 688 mmHg 38%
    05:00 +23°C° 0 mm 1 mps 689 mmHg 42%
    06:00 +23°C° 0 mm 1 mps 689 mmHg 45%
    07:00 +21°C° 0 mm 0 mps 690 mmHg 48%
    08:00 +27°C° 0 mm 1 mps 691 mmHg 40%
    09:00 +31°C° 0 mm 1 mps 692 mmHg 32%
    10:00 +35°C° 0 mm 1 mps 693 mmHg 25%
    11:00 +36°C° 0 mm 1 mps 692 mmHg 21%
    12:00 +38°C° 0 mm 2 mps 691 mmHg 18%
    13:00 +39°C° 0 mm 3 mps 691 mmHg 15%
    14:00 +39°C° 0 mm 3 mps 690 mmHg 15%
    15:00 +39°C° 0 mm 3 mps 689 mmHg 15%
    16:00 +38°C° 0 mm 3 mps 689 mmHg 15%
    17:00 +36°C° 0 mm 3 mps 688 mmHg 18%
    18:00 +33°C° 0 mm 3 mps 688 mmHg 20%
    19:00 +30°C° 0 mm 2 mps 688 mmHg 23%
    20:00 +29°C° 0 mm 2 mps 688 mmHg 26%
    21:00 +27°C° 0 mm 2 mps 689 mmHg 28%
    22:00 +26°C° 0 mm 2 mps 689 mmHg 31%
    23:00 +25°C° 0 mm 1 mps 689 mmHg 32%

    11 April, Saturday

    Time Temperature Precipitation Wind Pressure Humidity
    00:00 +24°C° 0 mm 1 mps 689 mmHg 34%
    01:00 +24°C° 0 mm 1 mps 689 mmHg 35%
    02:00 +23°C° 0 mm 1 mps 689 mmHg 38%
    03:00 +22°C° 0 mm 1 mps 689 mmHg 41%
    04:00 +21°C° 0 mm 1 mps 688 mmHg 43%
    05:00 +22°C° 0 mm 1 mps 689 mmHg 45%
    06:00 +22°C° 0 mm 1 mps 689 mmHg 47%
    07:00 +23°C° 0 mm 1 mps 690 mmHg 49%
    08:00 +27°C° 0 mm 1 mps 691 mmHg 41%
    09:00 +31°C° 0 mm 1 mps 692 mmHg 32%
    10:00 +36°C° 0 mm 1 mps 693 mmHg 24%
    11:00 +37°C° 0 mm 1 mps 692 mmHg 21%
    12:00 +40°C° 0 mm 1 mps 691 mmHg 17%
    13:00 +41°C° 0 mm 2 mps 691 mmHg 14%
    14:00 +41°C° 0 mm 2 mps 690 mmHg 15%
    15:00 +40°C° 0 mm 2 mps 689 mmHg 15%
    16:00 +40°C° 0 mm 2 mps 688 mmHg 15%
    17:00 +37°C° 0 mm 2 mps 688 mmHg 17%
    18:00 +35°C° 0 mm 2 mps 687 mmHg 19%
    19:00 +32°C° 0 mm 1 mps 687 mmHg 22%
    20:00 +31°C° 0 mm 1 mps 688 mmHg 25%
    21:00 +29°C° 0 mm 2 mps 688 mmHg 29%
    22:00 +28°C° 0 mm 2 mps 688 mmHg 33%
    23:00 +27°C° 0 mm 1 mps 688 mmHg 34%
    Show more